This is the latest recevied weather packets stored in our database for station/object WV5G-13. If no packets are shown the sender has not sent any weather packets the latest 10 day(s).
| Time | Temp. | Humidity | Pressure | Rain* | Wind** | Luminosity | Snow |
|---|---|---|---|---|---|---|---|
| 1777515848 | 14.44° C | 45% | 1013.5 hPa | 0 mm | - | 0 W/m² | - |
| 1777515544 | 15° C | 44% | 1013.3 hPa | 0 mm | - | 0 W/m² | - |
| 1777515241 | 15° C | 43% | 1013.3 hPa | 0 mm | - | 0 W/m² | - |
| 1777514936 | 15° C | 43% | 1013.5 hPa | 0 mm | - | 0 W/m² | - |
| 1777514633 | 15.56° C | 43% | 1013.3 hPa | 0 mm | - | 0 W/m² | - |
| 1777514331 | 15.56° C | 42% | 1013 hPa | 0 mm | - | 0 W/m² | - |
| 1777514028 | 15.56° C | 42% | 1012.9 hPa | 0 mm | - | 0 W/m² | - |
| 1777513725 | 16.11° C | 41% | 1013 hPa | 0 mm | - | 0 W/m² | - |
| 1777513422 | 16.11° C | 40% | 1012.8 hPa | 0 mm | - | 0 W/m² | - |
| 1777513118 | 16.67° C | 40% | 1012.5 hPa | 0 mm | - | 1 W/m² | - |
| 1777512814 | 16.67° C | 40% | 1012.9 hPa | 0 mm | - | 3 W/m² | - |
| 1777512511 | 16.67° C | 39% | 1012.8 hPa | 0 mm | - | 5 W/m² | - |
| 1777512208 | 17.22° C | 38% | 1012.3 hPa | 0 mm | - | 9 W/m² | - |
| 1777511905 | 17.22° C | 38% | 1012.2 hPa | 0 mm | - | 13 W/m² | - |
| 1777511603 | 17.78° C | 37% | 1012.7 hPa | 0 mm | - | 17 W/m² | - |
| 1777511300 | 17.78° C | 36% | 1012.8 hPa | 0 mm | - | 23 W/m² | - |
| 1777510996 | 18.33° C | 36% | 1012.3 hPa | 0 mm | - | 29 W/m² | - |
| 1777510693 | 18.33° C | 35% | 1012.5 hPa | 0 mm | - | 35 W/m² | - |
| 1777510388 | 18.33° C | 35% | 1012.7 hPa | 0 mm | - | 41 W/m² | - |
| 1777510085 | 18.89° C | 34% | 1012.9 hPa | 0 mm | - | 48 W/m² | - |
| 1777509782 | 18.89° C | 34% | 1012.7 hPa | 0 mm | - | 56 W/m² | - |
| 1777509477 | 18.89° C | 33% | 1012.3 hPa | 0 mm | - | 67 W/m² | - |
| 1777509175 | 18.89° C | 33% | 1012.7 hPa | 0 mm | - | 77 W/m² | - |
| 1777508872 | 18.89° C | 32% | 1012.5 hPa | 0 mm | - | 88 W/m² | - |
| 1777508568 | 19.44° C | 32% | 1012.7 hPa | 0 mm | - | 99 W/m² | - |
* Rain latest hour (hover to see other rain measurements)
** Current wind speed in m/s (hover to see current wind gust speed)